Location: Unspecified
(41.1850°N, 73.2650°W)
Time: 05:30:48
(UTC+00:00)

Daily predictions for brighter satellites

Satellite Brightness Start Highest point End
(mag) Time Altitude Azimuth Time Altitude Azimuth Time Altitude Azimuth
ATLAS 5 CENTAUR R/B 0.9 00:02:26 10° SW 00:05:42 85° NW 00:09:16 10° NE
CZ-4B DEB 4.3 00:00:40 10° SSE 00:06:13 86° ENE 00:11:47 10° NNW
Okean-O 4.5 00:04:36 10° E 00:06:58 14° ENE 00:09:22 10° NNE
Cosmos 1825 2.7 00:04:27 10° NNW 00:07:51 55° W 00:11:12 10° S
Cosmos 1975 Rocket 3.3 00:04:32 10° N 00:08:44 48° E 00:12:53 10° SSE
Cosmos 2341 Rocket 4.4 00:14:41 10° NNW 00:20:55 69° W 00:27:04 10° S
CZ-4 R/B 1.3 00:17:02 10° SSE 00:20:57 89° ENE 00:24:50 10° NNW
Okean O Rocket 2.2 00:17:08 10° SE 00:21:07 37° ENE 00:25:09 10° N
CZ-4B R/B 3.3 00:16:09 10° SSE 00:21:43 65° ENE 00:27:14 10° N
Cosmos 1782 Rocket 4.1 00:19:24 10° SSW 00:23:43 63° W 00:28:07 10° N
Cosmos 2366 rocket 4.2 00:19:14 10° N 00:25:36 80° W 00:31:56 10° S
SPOT 1/Viking Rocket 3.6 00:21:16 10° SSE 00:26:28 83° ENE 00:31:43 10° NNW
CZ-4B R/B 4.0 00:26:36 10° S 00:30:03 39° W 00:33:24 10° NNW
Tiangong -1.6 00:28:30 10° SW 00:31:23 37° SSE 00:33:26 16° E
Nadezhda 3 Rocket 4.1 00:28:23 10° SSE 00:34:17 52° E 00:40:15 10° NNE
SJ 16-02 2.8 00:30:54 10° NW 00:34:54 38° WSW 00:38:53 10° S
Resurs 01 Rocket 1.7 00:31:53 10° SSE 00:36:11 56° ENE 00:40:31 10° N
Cosmos 1486 Rocket 4.2 00:32:23 10° N 00:37:30 54° ENE 00:41:54 14° SE
Feng Yun 1-1 Rocket 4.2 00:32:05 10° SSE 00:37:34 76° ENE 00:43:16 10° N
DELTA 2 DEB (DPAF) 3.9 00:34:30 10° NNE 00:38:44 78° ESE 00:42:58 10° S
Cosmos 1821 Rocket 3.9 00:33:06 10° N 00:39:16 74° E 00:45:19 10° SSE
Atlas Centaur 2 3.3 00:38:15 10° SW 00:42:12 20° S 00:44:12 16° SE
USA 267 4.3 00:43:49 10° NE 00:50:03 48° NNW 00:56:16 10° WSW
Cosmos 2151 Rocket 3.7 00:48:09 10° SSE 00:52:23 50° E 00:56:40 10° NNE
SL-4 R/B 4.1 00:57:25 10° NW 00:59:49 16° N 01:02:08 10° NE
Milstar 3 4.5 01:00:21 10° WSW 01:09:16 45° SSE 01:20:07 20° ESE
NOSS 3-1 (A) 3.8 01:07:32 10° SW 01:12:18 55° NW 01:17:58 10° NNE
Cosmos 1339 Rocket 4.4 01:08:14 10° S 01:14:18 66° E 01:20:20 10° NNE
Okean 2 Rocket 3.0 01:09:51 10° S 01:14:21 84° E 01:18:52 10° N
Cosmos 371 Rocket 3.2 01:10:02 10° NNW 01:14:49 68° ENE 01:16:55 33° SE
Cosmos 2227 Rocket 3.7 01:11:38 10° N 01:15:56 22° NE 01:17:48 19° ENE
Cosmos 1934 Rocket 4.0 01:10:13 10° N 01:16:21 62° E 01:20:03 25° SSE
Cosmos 304 Rocket 3.8 01:13:23 10° NNW 01:18:06 58° ENE 01:19:45 37° SE
BlueWalker 3 2.7 01:15:30 10° WSW 01:19:13 51° NW 01:22:58 10° NE
USA 229 DEB 3.4 01:15:03 10° SSW 01:20:57 62° ESE 01:27:25 10° NE
USA 229 3.4 01:15:08 10° SSW 01:21:03 61° ESE 01:27:31 10° NE
MetOp-B 4.3 01:19:41 32° SE 01:21:57 55° ENE 01:27:10 10° N
Cosmos 1697 Rocket 3.5 01:23:43 30° E 01:23:43 30° E 01:28:13 10° NE
CSL-04 Rocket 4.4 01:18:12 10° S 01:23:33 52° W 01:28:53 10° NNW
USA 281 3.2 01:19:38 24° SSE 01:23:52 85° ENE 01:30:29 10° NNW
Cosmos 1777 Rocket 4.0 01:19:00 10° NNW 01:24:17 71° ENE 01:26:27 36° SE
USA 234 3.3 01:20:37 27° SE 01:24:26 79° SW 01:31:01 10° NW
Cosmos 2360 4.5 01:22:36 26° SSE 01:25:18 43° ESE 01:30:40 10° NE
SPOT 5 3.2 01:23:31 35° SE 01:25:35 57° ENE 01:30:44 10° N
COSMOS 2455 3.5 01:29:52 10° NNW 01:35:36 42° NE 01:37:25 34° E
Terra 2.5 01:36:15 36° E 01:36:33 37° ENE 01:40:53 10° N
Cosmos 1455 Rocket 4.1 01:37:46 30° ENE 01:37:46 30° ENE 01:40:43 10° NNE
Okean 1 Rocket 3.0 01:35:07 33° S 01:37:08 90° E 01:41:37 10° N
Spot 2 Rocket 4.2 01:36:48 35° E 01:37:21 36° ENE 01:41:56 10° N
Sich 1 Rocket 4.3 01:34:09 10° SSW 01:38:25 51° W 01:42:46 10° N
IRS-1A Rocket 4.3 01:37:21 39° SE 01:39:35 69° ENE 01:45:26 10° N
Cosmos 1503 Rocket 4.3 01:36:53 10° NNW 01:42:12 64° WSW 01:44:36 32° S
Genesis I 3.0 01:38:42 10° NNW 01:42:08 77° N 01:42:08 77° N
Okean-O 3.1 01:41:00 31° SSW 01:42:53 56° W 01:47:14 10° NNW
CZ-4C R/B 4.2 01:39:47 10° N 01:42:59 39° WNW 01:45:03 18° SW
Cosmos 2297 Rocket 2.2 01:39:06 10° NNW 01:44:43 63° ENE 01:46:01 49° ESE
Cosmos 1354 Rocket 4.0 01:39:58 10° NNW 01:45:20 80° WSW 01:47:03 44° S
Cosmos 1656 3.9 01:39:58 10° SSW 01:45:33 70° WNW 01:51:04 10° NNE
Iridium 4 Rocket 3.6 01:42:53 31° S 01:45:41 90° SW 01:51:32 10° N
ATLAS 3B R/B 4.1 01:39:09 10° WSW 01:45:48 41° NW 01:52:55 10° NNE
Cosmos 1437 Rocket 4.2 01:42:33 10° N 01:45:01 27° NE 01:45:01 27° NE
Cosmos 332 Rocket 4.0 01:42:40 10° N 01:47:24 51° ENE 01:47:43 50° E
USA 245 4.0 01:49:43 55° SE 01:50:38 66° ENE 01:55:16 10° N
CZ-4C R/B 3.6 01:47:57 10° NNW 01:54:50 45° NE 01:57:56 33° E
Cosmos 1535 Rocket 4.4 01:48:30 10° N 01:54:55 88° E 01:57:17 42° S
Ariane Rocket 3.1 01:56:55 55° E 01:57:07 55° ENE 02:02:03 10° N
Okean O Rocket 3.9 01:54:22 10° SW 01:57:30 19° W 02:00:41 10° NW
Cosmos 1763 Rocket 3.2 01:57:18 62° S 01:58:06 78° ESE 02:03:14 10° NNE
Cosmos 44 3.8 01:52:46 10° SW 01:58:08 67° NW 02:03:29 10° NNE
Cosmos 2219 4.4 01:55:04 10° N 01:59:47 26° NE 02:00:16 26° ENE
ARGOS Delta rocket 4.4 02:07:08 49° ENE 02:07:08 49° ENE 02:12:18 10° N
Tiangong 0.6 02:04:48 10° W 02:05:29 15° W 02:05:29 15° W
Cosmos 2263 Rocket 3.7 02:06:33 10° N 02:10:50 22° NE 02:11:08 22° ENE
Cosmos 990 Rocket 3.9 02:06:51 10° NNW 02:11:55 71° ENE 02:11:55 71° ENE
Resurs 01 Rocket 4.4 02:10:53 10° WSW 02:12:58 13° W 02:15:04 10° WNW
Cosmos 540 Rocket 3.4 02:17:47 70° NE 02:17:47 70° NE 02:22:20 10° NNE
MOS 1 Rocket 4.3 02:22:53 35° NNE 02:22:53 35° NNE 02:25:42 10° N
Cosmos 468 Rocket 4.1 02:31:32 71° NNW 02:31:32 71° NNW 02:36:17 10° NNE
Cosmos 2173 Rocket 4.4 02:24:58 10° N 02:30:50 50° ENE 02:30:50 50° ENE
ERS-1 Rocket 3.4 02:31:09 54° WSW 02:31:16 54° W 02:36:11 10° NNW
Cosmos 1605 Rocket 4.4 02:25:16 10° NNW 02:31:31 58° W 02:33:11 45° SW
ATLAS CENTAUR R/B 3.2 02:28:29 10° NNW 02:30:19 24° N 02:30:19 24° N
SPOT 3 Rocket 3.7 02:37:35 69° WNW 02:37:35 69° WNW 02:42:26 10° NNW
SL-4 R/B 4.3 02:36:01 10° NW 02:37:17 19° NNW 02:37:17 19° NNW
Cosmos 1153 Rocket 4.4 02:33:39 10° N 02:39:58 84° W 02:40:13 81° SW
Cosmos 1802 Rocket 4.4 02:48:09 10° N 02:53:27 52° NE 02:53:27 52° NE
Cosmos 1980 Rocket 3.1 03:00:17 42° NNE 03:00:17 42° NNE 03:03:55 10° NNE
Cosmos 2227 Rocket 2.7 02:54:49 10° NNW 02:59:36 55° WNW 02:59:36 55° WNW
Cosmos 1727 Rocket 4.4 03:03:11 54° WSW 03:03:48 56° W 03:09:57 10° N
CENTAUR R/B 3.4 02:56:27 10° NNW 03:04:48 65° NE 03:06:12 58° E
Cosmos 1937 Rocket 4.4 03:00:24 10° NNW 03:04:09 46° N 03:04:09 46° N
Cosmos 1697 Rocket 3.9 03:05:18 31° W 03:07:08 39° WNW 03:12:28 10° N
Cosmos 2100 Rocket 4.1 03:02:41 10° N 03:08:26 72° NW 03:08:26 72° NW
Terra 3.8 03:14:57 22° W 03:14:57 22° W 03:17:57 10° NW
Cosmos 2123 Rocket 4.4 03:19:42 60° N 03:19:42 60° N 03:24:48 10° N
COSMOS 2455 4.1 03:16:04 10° NW 03:20:34 31° W 03:20:34 31° W
Cosmos 2297 Rocket 4.2 03:24:30 10° WNW 03:27:50 18° W 03:27:50 18° W
CZ-4C R/B 3.5 03:36:16 10° NW 03:43:02 50° WSW 03:43:02 50° WSW
Cosmos 2263 Rocket 3.6 03:49:40 10° NNW 03:52:49 33° NW 03:52:49 33° NW
Cosmos 2322 Rocket 4.3 04:09:18 19° NE 04:09:18 19° NE 04:10:51 10° NE
SL-16 R/B 3.8 04:28:24 30° NNE 04:28:24 30° NNE 04:31:09 10° NNE
Cosmos 1844 Rocket 4.3 04:34:11 10° NNW 04:37:03 31° N 04:37:03 31° N
CENTAUR R/B 4.3 04:47:39 10° NW 04:53:21 33° W 04:53:21 33° W
USA 238 DEB 4.3 04:48:44 10° NNW 04:55:09 61° NNE 04:55:09 61° NNE
USA 238 4.3 04:48:50 10° NNW 04:55:17 61° NNE 04:55:17 61° NNE
USA 215 4.3 05:15:44 10° NE 05:19:35 37° ENE 05:19:35 37° ENE
Cosmos 2360 Rocket 3.7 05:38:01 32° NNW 05:38:01 32° NNW 05:41:20 10° NNE
Lacrosse 5 3.9 05:42:36 25° N 05:42:36 25° N 05:45:28 10° NNE
Cosmos 2322 Rocket 3.9 05:51:04 25° NNW 05:51:04 25° NNW 05:54:30 10° N
Cosmos 2333 Rocket 3.7 05:51:42 32° NNW 05:51:42 32° NNW 05:55:12 10° N
Cosmos 2219 Rocket 3.5 05:52:27 36° N 05:52:27 36° N 05:55:46 10° NNE
Cosmos 2278 Rocket 3.9 05:50:15 10° N 05:54:59 26° NE 05:56:06 25° ENE
USA 267 4.3 05:49:27 10° E 05:55:30 41° NNE 06:01:33 10° NW
CZ-2D R/B 3.9 05:57:02 10° NE 06:00:22 25° ENE 06:00:22 25° ENE
IDEFIX/ARIANE 42P 3.7 06:19:15 10° NNE 06:22:51 40° NE 06:22:51 40° NE
Resurs 1-4 Rocket 3.2 06:20:53 10° NNE 06:24:46 39° ENE 06:24:46 39° ENE
Cosmos 1943 Rocket 3.9 06:26:15 10° N 06:31:10 29° NE 06:35:19 13° ESE
ATLAS 2AS CENTAUR R/B 4.0 06:31:03 30° ESE 06:31:46 30° ESE 06:37:54 10° NE
NOSS 0 Rocket 4.1 06:39:15 69° NE 06:39:15 69° NE 06:44:38 10° NNE
CZ-2C R/B 3.4 06:40:33 48° ENE 06:40:40 48° ENE 06:45:48 10° N
NPP 4.0 06:46:30 10° NNE 06:50:55 61° N 06:50:55 61° N
RESURS DK-1 4.4 06:59:51 23° N 06:59:51 23° N 07:01:40 10° N
ADEOS II 2.5 06:54:45 10° NNE 06:59:38 57° E 06:59:38 57° E
SL-16 R/B 3.3 06:56:41 25° SE 07:00:01 49° ENE 07:05:58 10° N
Cosmos 2237 Rocket 2.2 07:03:56 77° NNE 07:03:56 77° NNE 07:09:13 10° NNE
Meteor 1-19 Rocket 4.4 07:03:21 67° ESE 07:03:41 69° E 07:09:41 10° NNE
USA 215 4.0 06:58:57 10° NE 07:05:02 43° NNW 07:06:55 35° WNW
GEOS 3 Rocket 3.7 07:05:48 77° NNE 07:05:48 77° NNE 07:10:55 10° NNW
Cosmos 1980 3.7 07:06:12 74° N 07:06:12 74° N 07:11:26 10° NNE
COSMOS 2428 3.8 07:09:12 33° NW 07:09:12 33° NW 07:13:57 10° N
ATLAS 5 CENTAUR R/B 4.2 07:04:57 10° N 07:09:03 25° NE 07:13:51 10° E
Nadezhda 4 Rocket 4.0 07:14:01 63° WNW 07:14:01 63° WNW 07:19:54 10° N
GP-B 3.8 07:10:36 10° N 07:14:08 53° NE 07:14:08 53° NE
USA 308 4.5 07:17:01 28° ENE 07:17:01 28° ENE 07:19:03 10° NE
NOSS 2-2 (D) 4.0 07:15:44 10° NW 07:20:26 89° WSW 07:27:11 10° SSE
Cosmos 1428 Rocket 4.3 07:19:59 72° SSW 07:20:39 83° W 07:26:57 10° N
Meteor 2-9 Rocket 4.0 07:15:47 10° N 07:21:14 89° E 07:21:27 83° SSE
IRAS Rocket 4.2 07:17:50 10° NNE 07:23:30 79° ESE 07:24:07 69° SSE
Lacrosse 5 4.5 07:22:45 10° NW 07:25:27 14° N 07:28:08 10° NNE
Cosmos 1680 Rocket 3.4 07:27:58 85° SSW 07:28:07 90° ESE 07:33:28 10° NNE
Cosmos 1340 Rocket 3.5 07:32:54 50° ENE 07:32:54 50° ENE 07:36:08 10° NNE
UNK 4.4 07:30:56 34° SE 07:32:35 52° ENE 07:37:03 10° N
Meteor 1-27 Rocket 3.7 07:33:22 63° W 07:33:37 64° WNW 07:39:15 10° N
Cosmos 1420 Rocket 4.3 07:28:50 10° NNW 07:34:05 66° ENE 07:37:29 22° SSE
Cosmos 2219 Rocket 4.4 07:34:08 11° NW 07:35:15 11° NW 07:37:04 10° NNW
MSX 4.3 07:31:14 10° N 07:36:39 43° WNW 07:36:53 43° WNW
USA 267 3.1 07:31:43 10° SE 07:38:14 70° SW 07:44:47 10° NW
Cosmos 2278 Rocket 2.8 07:33:51 10° NW 07:37:52 39° WNW 07:37:52 39° WNW
CZ-2D R/B 2.8 07:36:37 10° N 07:41:38 40° WNW 07:41:39 40° WNW
Cosmos 2056 Rocket 3.8 07:38:09 10° NNW 07:43:34 68° ENE 07:48:56 10° SSE
Cosmos 2344 4.2 07:36:17 10° NW 07:45:10 68° WSW 07:57:40 10° SSE
Sich 1 4.3 07:42:44 10° NNW 07:45:01 28° NW 07:45:01 28° NW
Cosmos 1340 3.2 07:45:11 10° N 07:48:26 49° ENE 07:48:26 49° ENE
Cosmos 1666 Rocket 3.9 07:45:08 10° N 07:49:34 63° E 07:51:15 35° SSE
FENGYUN 3A 3.7 07:45:07 10° N 07:50:26 58° WNW 07:51:12 53° WSW
Cosmos 1624 Rocket 4.0 07:49:19 10° NNW 07:54:33 82° ENE 07:59:41 10° SSE
CZ-2C R/B 3.4 07:50:46 10° N 07:55:47 47° WNW 07:56:30 45° W
Intercosmos 25 Rocket 4.2 07:53:01 10° N 07:56:56 66° E 08:03:02 10° SSE
SL-16 R/B 2.2 07:55:45 41° S 07:57:46 77° ESE 08:03:26 10° NNE
ALOS 2.2 07:56:54 10° N 08:01:30 66° WNW 08:02:12 57° WSW
Cosmos 1092 Rocket 4.2 08:01:14 42° WSW 08:02:42 50° WNW 08:08:40 10° N
Cosmos 2026 Rocket 4.3 08:01:30 41° WSW 08:03:10 51° WNW 08:09:22 10° N
IDEFIX/ARIANE 42P 4.1 07:59:48 10° NNW 08:03:27 20° WNW 08:03:37 20° WNW
Envisat 3.5 07:58:35 10° NNE 08:03:35 57° E 08:06:43 22° S
Resurs 1-4 Rocket 3.4 08:01:20 10° NNW 08:05:26 23° WNW 08:05:50 23° WNW
Cosmos 1328 Rocket 3.4 08:09:40 50° SSW 08:10:46 76° W 08:15:12 10° N
Cosmos 1943 Rocket 2.5 08:09:42 10° NW 08:15:01 43° WSW 08:16:40 34° SW
USA 290 2.2 08:16:55 10° NNW 08:20:00 71° ENE 08:21:44 23° SSE
CZ-2C R/B 2.9 08:15:53 10° NNE 08:21:02 64° E 08:25:19 15° S
CZ-2C R/B 4.0 08:22:02 21° W 08:22:02 21° W 08:25:13 10° NW
ATLAS 2AS CENTAUR R/B 3.0 08:18:29 30° WSW 08:22:20 61° NW 08:29:26 10° NNE
Cosmos 1633 Rocket 2.9 08:18:29 10° NNW 08:22:48 67° W 08:25:05 27° S
Iridium 51 4.2 08:22:06 28° SSE 08:23:38 64° E 08:26:57 10° N
Cosmos 1975 2.9 08:20:38 10° NNW 08:24:21 46° W 08:24:38 45° WSW
Cosmos 1805 4.0 08:21:18 10° NNW 08:24:04 32° WNW 08:24:04 32° WNW
Cosmos 1371 Rocket 4.1 08:20:20 10° NNW 08:25:24 50° WSW 08:29:58 13° S
Cosmos 921 Rocket 3.9 08:33:24 28° W 08:34:18 31° WNW 08:38:13 10° N
ADEOS II 3.6 08:35:30 10° NNW 08:39:04 19° WNW 08:40:31 17° W
Cosmos 1066 Rocket 4.1 08:38:32 17° SSW 08:42:41 69° W 08:48:12 10° N
NOAA 11 4.1 08:37:41 10° N 08:43:09 75° WNW 08:47:59 13° SSW
SL-16 R/B 3.4 08:41:46 22° SW 08:43:47 27° W 08:48:57 10° NW
CZ-4 R/B 4.1 08:39:56 10° N 08:44:25 46° WNW 08:47:00 23° SW
Cosmos 1470 3.7 08:41:26 10° N 08:45:08 47° E 08:48:47 10° SSE
Cosmos 1626 2.7 08:46:07 29° W 08:46:33 30° WNW 08:49:32 10° NNW
USA 308 4.3 08:45:32 15° WNW 08:47:36 23° NNW 08:50:48 10° NNE
Thor Agena Rocket 3.4 08:42:43 10° NNE 08:47:46 79° WNW 08:52:34 11° SSW
Cosmos 2237 Rocket 4.1 08:45:45 12° WNW 08:48:22 15° NW 08:51:41 10° NNW
BREEZE-M DEB (TANK) 3.1 08:45:10 18° W 08:48:41 43° NNW 08:51:11 10° NE
Cosmos 1417 Rocket 4.5 08:42:41 10° NNW 08:49:01 72° W 08:55:21 10° S
ATLAS 5 CENTAUR R/B 2.2 08:48:05 10° NW 08:53:16 62° WSW 08:59:39 10° SSE
H-2A R/B 3.4 08:48:55 10° NNE 08:53:40 39° E 08:58:31 10° SSE
Cosmos 2369 Rocket 2.3 08:48:15 10° NNW 08:53:52 82° ENE 08:59:27 10° SSE
Cosmos 2297 3.7 08:49:19 10° NNW 08:55:05 73° WSW 09:00:47 10° SSE
Orbus 7S? 4.3 08:53:24 11° SSW 08:56:20 29° SE 08:58:46 10° ENE
Cosmos 2266 Rocket 3.9 08:54:10 10° SSW 09:00:10 64° W 09:06:10 10° N
ISS -1.1 08:58:27 10° SSE 09:00:17 14° SE 09:02:08 10° E
S3M 3.9 08:54:50 10° NNW 09:00:59 70° W 09:07:11 10° S
Cosmos 1048 Rocket 4.3 08:57:37 16° SW 09:01:40 51° WNW 09:06:49 10° N
KORONAS-FOTON 3.6 09:00:34 10° SSW 09:04:11 71° W 09:07:49 10° N
NOSS 3-1 (C) 4.2 08:57:47 10° NW 09:05:19 59° WSW 09:14:11 10° SSE
Cosmos 1908 3.9 09:02:41 10° N 09:06:16 52° E 09:09:47 10° SSE
Cosmos 1515 Rocket 4.1 09:03:29 14° SW 09:06:58 40° WNW 09:11:10 10° N
Lacrosse 5 4.4 09:07:09 10° NNW 09:10:21 16° NNE 09:13:33 10° NE
Cosmos 1766 3.9 09:07:50 10° NNW 09:11:07 31° W 09:14:24 10° SSW
IRS-1D 3.8 09:06:31 10° N 09:11:29 51° WNW 09:16:31 10° SW
Cosmos 1656 Rocket 3.7 09:07:13 10° NNW 09:12:29 54° WSW 09:17:44 10° S
Cosmos 1869 Rocket 3.8 09:08:24 10° N 09:12:44 74° E 09:17:02 10° SSE
Cosmos 1943 3.2 09:08:00 10° SSW 09:13:42 84° WNW 09:19:26 10° NNE
Cosmos 1470 Rocket 4.4 09:10:18 10° NNW 09:14:08 29° W 09:17:57 10° SSW
Cosmos 2263 4.2 09:09:14 10° NNW 09:14:54 88° ENE 09:20:33 10° SSE
ASTRO E2 4.3 09:14:42 12° SW 09:16:31 16° S 09:18:49 10° SE
ATLAS 3B R/B 3.0 09:10:53 10° NW 09:18:47 84° WSW 09:26:29 10° SSE
PAYLOAD A 4.4 09:16:34 10° N 09:21:03 38° WNW 09:25:24 10° SW
ARIANE 5 R/B 4.4 09:18:12 10° NNE 09:22:56 34° E 09:27:36 10° SSE
Cosmos 1655 Rocket 4.1 09:20:00 10° SSW 09:26:05 57° W 09:32:14 10° N
Cosmos 1110 Rocket 4.2 09:23:28 10° NNW 09:28:34 51° WSW 09:33:40 10° S
Cosmos 1674 3.6 09:25:44 10° SW 09:28:37 25° WNW 09:31:32 10° NNW
DMSP B5D2-2 4.4 09:24:25 10° S 09:29:19 42° W 09:34:15 10° NNW
H-2A R/B 3.4 09:28:31 10° NNE 09:31:47 49° E 09:35:00 10° S
YAOGAN 6 4.1 09:29:37 10° NNW 09:31:51 17° WNW 09:34:04 10° WSW
Cosmos 1452 Rocket 3.8 09:27:12 10° NNW 09:32:10 44° WSW 09:37:07 10° S
Cosmos 1484 Rocket 2.5 09:31:15 10° N 09:34:49 67° WNW 09:38:21 10° SSW
Meteor 1-13 Rocket 4.4 09:31:59 10° SSW 09:37:37 59° WNW 09:43:24 10° N
Cosmos 2315 Rocket 4.2 09:32:30 10° NNW 09:38:29 52° W 09:44:27 10° SSW
Cosmos 1603 3.7 09:35:43 10° SSW 09:41:18 78° WNW 09:46:58 10° NNE
CZ-3 R/B 3.7 09:22:56 10° WSW 09:42:20 37° S 09:49:03 10° ESE
BREEZE-M DEB (TANK) 4.1 09:30:01 10° WNW 09:46:35 60° SW 09:51:06 10° SSE
